When you browse on this site, cookies collect data to enhance your experience and personalize the content and advertising you see.
Visit our Privacy Policy to learn more. By continuing to use the site, you agree to this use of cookies and data.
  • In Czech Republic
  • List of Countries
  • For 7 days
  • Water Temperature
  • Satellite Maps
  • Weather Map
  • Weather Widgets
  • user-avatar
    Login

    Hourly Weather Albany

    Today, 25 June, Tuesday

    Time Temperature Precipitation Wind Pressure Humidity
    00:00 +9°C° 0 mm 3 mps 762 mmHg 89%
    01:00 +9°C° 0 mm 3 mps 761 mmHg 88%
    02:00 +8°C° 0 mm 4 mps 761 mmHg 88%
    03:00 +8°C° 0 mm 4 mps 761 mmHg 87%
    04:00 +8°C° 0 mm 4 mps 761 mmHg 87%
    05:00 +8°C° 0 mm 4 mps 761 mmHg 86%
    06:00 +10°C° 0 mm 4 mps 761 mmHg 82%
    07:00 +11°C° 0 mm 4 mps 761 mmHg 79%
    08:00 +12°C° 0 mm 4 mps 761 mmHg 74%
    09:00 +14°C° 0 mm 5 mps 761 mmHg 69%
    10:00 +16°C° 0 mm 5 mps 761 mmHg 64%
    11:00 +17°C° 0 mm 6 mps 761 mmHg 59%
    12:00 +19°C° 0 mm 6 mps 760 mmHg 59%
    13:00 +19°C° 0 mm 6 mps 759 mmHg 59%
    14:00 +19°C° 0 mm 6 mps 758 mmHg 58%
    15:00 +17°C° 0 mm 6 mps 758 mmHg 61%
    16:00 +17°C° 0 mm 5 mps 758 mmHg 65%
    17:00 +16°C° 0 mm 5 mps 758 mmHg 68%
    18:00 +15°C° 0 mm 5 mps 758 mmHg 71%
    19:00 +14°C° 0 mm 5 mps 757 mmHg 74%
    20:00 +13°C° 0 mm 5 mps 757 mmHg 77%
    21:00 +14°C° 0 mm 5 mps 757 mmHg 74%
    22:00 +14°C° 0 mm 5 mps 757 mmHg 72%
    23:00 +14°C° 0 mm 5 mps 756 mmHg 69%

    Tomorrow, 26 June, Wednesday

    Time Temperature Precipitation Wind Pressure Humidity
    00:00 +14°C° 0 mm 5 mps 756 mmHg 71%
    01:00 +13°C° 0 mm 5 mps 755 mmHg 73%
    02:00 +12°C° 0 mm 5 mps 754 mmHg 75%
    03:00 +11°C° 0 mm 6 mps 754 mmHg 77%
    04:00 +11°C° 0 mm 6 mps 754 mmHg 79%
    05:00 +11°C° 0 mm 6 mps 753 mmHg 81%
    06:00 +11°C° 0 mm 6 mps 753 mmHg 81%
    07:00 +11°C° 0 mm 7 mps 752 mmHg 82%
    08:00 +11°C° 0 mm 7 mps 751 mmHg 82%
    09:00 +13°C° 0 mm 8 mps 751 mmHg 76%
    10:00 +16°C° 0 mm 8 mps 751 mmHg 71%
    11:00 +17°C° 0 mm 9 mps 750 mmHg 66%
    12:00 +18°C° 0.2 mm 9 mps 749 mmHg 66%
    13:00 +18°C° 0.2 mm 9 mps 747 mmHg 66%
    14:00 +18°C° 0.2 mm 9 mps 746 mmHg 67%
    15:00 +17°C° 1.2 mm 9 mps 746 mmHg 75%
    16:00 +15°C° 1.2 mm 9 mps 746 mmHg 82%
    17:00 +13°C° 1.2 mm 8 mps 746 mmHg 90%
    18:00 +13°C° 1 mm 8 mps 746 mmHg 89%
    19:00 +12°C° 1 mm 7 mps 747 mmHg 89%
    20:00 +11°C° 1 mm 6 mps 747 mmHg 88%
    21:00 +11°C° 0.1 mm 6 mps 747 mmHg 88%
    22:00 +10°C° 0.1 mm 7 mps 747 mmHg 89%
    23:00 +10°C° 0.1 mm 7 mps 747 mmHg 89%

    Day after tomorrow, 27 June, Thursday

    Time Temperature Precipitation Wind Pressure Humidity
    00:00 +9°C° 0.1 mm 7 mps 747 mmHg 88%
    01:00 +9°C° 0.1 mm 7 mps 747 mmHg 87%
    02:00 +9°C° 0.1 mm 8 mps 747 mmHg 86%
    03:00 +9°C° 0.1 mm 7 mps 748 mmHg 86%
    04:00 +9°C° 0.1 mm 7 mps 748 mmHg 85%
    05:00 +9°C° 0.1 mm 7 mps 748 mmHg 85%
    06:00 +9°C° 0.1 mm 7 mps 748 mmHg 84%
    07:00 +9°C° 0.1 mm 7 mps 748 mmHg 83%
    08:00 +9°C° 0.1 mm 7 mps 749 mmHg 81%
    09:00 +9°C° 0.5 mm 8 mps 749 mmHg 79%
    10:00 +10°C° 0.5 mm 8 mps 750 mmHg 76%
    11:00 +11°C° 0.5 mm 9 mps 750 mmHg 73%
    12:00 +11°C° 0.4 mm 9 mps 750 mmHg 73%
    13:00 +11°C° 0.4 mm 9 mps 750 mmHg 73%
    14:00 +11°C° 0.4 mm 8 mps 749 mmHg 73%
    15:00 +10°C° 0.4 mm 8 mps 750 mmHg 75%
    16:00 +9°C° 0.4 mm 8 mps 751 mmHg 78%
    17:00 +8°C° 0.4 mm 7 mps 752 mmHg 80%
    18:00 +8°C° 0.1 mm 7 mps 753 mmHg 81%
    19:00 +7°C° 0.1 mm 6 mps 753 mmHg 83%
    20:00 +5°C° 0.1 mm 6 mps 754 mmHg 84%
    21:00 +5°C° 0.2 mm 6 mps 755 mmHg 84%
    22:00 +5°C° 0.2 mm 6 mps 755 mmHg 84%
    23:00 +5°C° 0.2 mm 6 mps 756 mmHg 84%

    28 June, Friday

    Time Temperature Precipitation Wind Pressure Humidity
    00:00 +4°C° 0.2 mm 6 mps 756 mmHg 84%
    01:00 +4°C° 0.2 mm 6 mps 757 mmHg 83%
    02:00 +4°C° 0.2 mm 6 mps 757 mmHg 83%
    03:00 +4°C° 0.3 mm 6 mps 757 mmHg 84%
    04:00 +4°C° 0.3 mm 6 mps 758 mmHg 84%
    05:00 +4°C° 0.3 mm 6 mps 758 mmHg 85%
    06:00 +4°C° 0.3 mm 7 mps 759 mmHg 84%
    07:00 +5°C° 0.3 mm 7 mps 759 mmHg 84%
    08:00 +5°C° 0.3 mm 7 mps 760 mmHg 83%
    09:00 +7°C° 0.1 mm 8 mps 761 mmHg 77%
    10:00 +8°C° 0.1 mm 9 mps 761 mmHg 71%
    11:00 +11°C° 0.1 mm 9 mps 762 mmHg 65%
    12:00 +11°C° 0.1 mm 9 mps 762 mmHg 63%
    13:00 +11°C° 0.1 mm 8 mps 762 mmHg 61%
    14:00 +11°C° 0.1 mm 8 mps 762 mmHg 59%
    15:00 +10°C° 0 mm 7 mps 762 mmHg 63%
    16:00 +10°C° 0 mm 6 mps 763 mmHg 66%
    17:00 +9°C° 0 mm 5 mps 764 mmHg 70%
    18:00 +8°C° 0 mm 5 mps 764 mmHg 70%
    19:00 +8°C° 0 mm 4 mps 765 mmHg 71%
    20:00 +8°C° 0 mm 4 mps 765 mmHg 71%
    21:00 +8°C° 0 mm 4 mps 765 mmHg 72%
    22:00 +8°C° 0 mm 4 mps 765 mmHg 72%
    23:00 +9°C° 0 mm 3 mps 766 mmHg 73%

    29 June, Saturday

    Time Temperature Precipitation Wind Pressure Humidity
    00:00 +8°C° 0 mm 3 mps 765 mmHg 74%
    01:00 +7°C° 0 mm 4 mps 765 mmHg 75%
    02:00 +7°C° 0 mm 4 mps 765 mmHg 76%
    03:00 +7°C° 0 mm 4 mps 765 mmHg 77%
    04:00 +6°C° 0 mm 4 mps 765 mmHg 78%
    05:00 +6°C° 0 mm 4 mps 765 mmHg 79%
    06:00 +6°C° 0 mm 4 mps 765 mmHg 79%
    07:00 +6°C° 0 mm 5 mps 765 mmHg 80%
    08:00 +6°C° 0 mm 5 mps 764 mmHg 80%
    09:00 +8°C° 0 mm 5 mps 764 mmHg 75%
    10:00 +9°C° 0 mm 6 mps 764 mmHg 69%
    11:00 +11°C° 0 mm 7 mps 764 mmHg 64%
    12:00 +12°C° 0 mm 7 mps 763 mmHg 63%
    13:00 +12°C° 0 mm 7 mps 763 mmHg 62%
    14:00 +14°C° 0 mm 7 mps 762 mmHg 61%
    15:00 +12°C° 0 mm 7 mps 762 mmHg 64%
    16:00 +13°C° 0 mm 6 mps 762 mmHg 67%
    17:00 +11°C° 0 mm 6 mps 761 mmHg 70%
    18:00 +11°C° 0 mm 6 mps 761 mmHg 73%
    19:00 +11°C° 0 mm 6 mps 761 mmHg 77%
    20:00 +10°C° 0 mm 7 mps 761 mmHg 81%
    21:00 +10°C° 0 mm 7 mps 761 mmHg 80%
    22:00 +10°C° 0 mm 7 mps 760 mmHg 80%
    23:00 +10°C° 0 mm 7 mps 760 mmHg 80%

    30 June, Sunday

    Time Temperature Precipitation Wind Pressure Humidity
    00:00 +10°C° 0 mm 7 mps 760 mmHg 80%
    01:00 +10°C° 0 mm 7 mps 759 mmHg 81%
    02:00 +10°C° 0 mm 7 mps 759 mmHg 81%
    03:00 +10°C° 0 mm 7 mps 759 mmHg 81%
    04:00 +11°C° 0 mm 7 mps 758 mmHg 81%
    05:00 +11°C° 0 mm 8 mps 758 mmHg 80%
    06:00 +11°C° 0 mm 8 mps 758 mmHg 80%
    07:00 +11°C° 0 mm 8 mps 758 mmHg 80%
    08:00 +11°C° 0 mm 8 mps 758 mmHg 80%
    09:00 +12°C° 0.1 mm 8 mps 758 mmHg 77%
    10:00 +13°C° 0.1 mm 8 mps 758 mmHg 74%
    11:00 +15°C° 0.1 mm 8 mps 758 mmHg 72%
    12:00 +15°C° 1.4 mm 8 mps 757 mmHg 76%
    13:00 +14°C° 1.4 mm 7 mps 756 mmHg 81%
    14:00 +14°C° 1.4 mm 7 mps 756 mmHg 86%
    15:00 +13°C° 1.1 mm 6 mps 756 mmHg 87%
    16:00 +13°C° 1.1 mm 6 mps 756 mmHg 87%
    17:00 +13°C° 1.1 mm 6 mps 756 mmHg 88%
    18:00 +11°C° 0.1 mm 6 mps 757 mmHg 88%
    19:00 +10°C° 0.1 mm 6 mps 757 mmHg 88%
    20:00 +10°C° 0.1 mm 6 mps 757 mmHg 88%
    21:00 +10°C° 0.1 mm 6 mps 757 mmHg 88%
    22:00 +9°C° 0.1 mm 6 mps 757 mmHg 89%
    23:00 +9°C° 0.1 mm 6 mps 757 mmHg 89%
    Show more